This is the latest recevied weather packets stored in our database for station/object KB4MLW-13. If no packets are shown the sender has not sent any weather packets the latest 10 day(s).
| Time | Temp. | Humidity | Pressure | Rain* | Wind** | Luminosity | Snow |
|---|---|---|---|---|---|---|---|
| 1788275698 | 32.22° C | 69% | 1003.1 hPa | 0 mm | - | - | - |
| 1788275608 | 32.78° C | 70% | 1003.1 hPa | 0 mm | - | - | - |
| 1788275519 | 32.78° C | 69% | 1003.2 hPa | 0 mm | - | - | - |
| 1788275458 | 32.78° C | 71% | 1002.9 hPa | 0 mm | - | - | - |
| 1788275368 | 32.22° C | 71% | 1003.2 hPa | 0 mm | - | - | - |
| 1788275308 | 32.22° C | 70% | 1003 hPa | 0 mm | - | - | - |
| 1788275248 | 31.67° C | 74% | 1002.9 hPa | 0 mm | - | - | - |
| 1788275161 | 31.67° C | 70% | 1003.1 hPa | 0 mm | - | - | - |
| 1788275098 | 31.67° C | 70% | 1003.1 hPa | 0 mm | - | - | - |
| 1788275038 | 31.67° C | 71% | 1003.1 hPa | 0 mm | - | - | - |
| 1788274978 | 31.67° C | 71% | 1003 hPa | 0 mm | - | - | - |
| 1788274890 | 31.11° C | 72% | 1002.9 hPa | 0 mm | - | - | - |
| 1788274828 | 31.11° C | 72% | 1003 hPa | 0 mm | - | - | - |
| 1788274738 | 31.11° C | 74% | 1002.9 hPa | 0 mm | - | - | - |
| 1788274649 | 31.11° C | 72% | 1002.9 hPa | 0 mm | - | - | - |
| 1788274588 | 31.11° C | 74% | 1002.9 hPa | 0 mm | - | - | - |
| 1788274528 | 31.67° C | 72% | 1003.2 hPa | 0 mm | - | - | - |
| 1788274468 | 31.11° C | 72% | 1002.9 hPa | 0 mm | - | - | - |
| 1788274408 | 31.11° C | 74% | 1003.1 hPa | 0 mm | - | - | - |
| 1788274348 | 31.11° C | 74% | 1003 hPa | 0 mm | - | - | - |
| 1788274259 | 31.11° C | 72% | 1003.2 hPa | 0 mm | - | - | - |
| 1788274198 | 31.67° C | 73% | 1003.2 hPa | 0 mm | - | - | - |
| 1788274138 | 31.67° C | 73% | 1003 hPa | 0 mm | - | - | - |
| 1788274048 | 31.11° C | 73% | 1003.1 hPa | 0 mm | - | - | - |
| 1788273959 | 31.11° C | 73% | 1003.1 hPa | 0 mm | - | - | - |
* Rain latest hour (hover to see other rain measurements)
** Current wind speed in m/s (hover to see current wind gust speed)